| time (UTC) | temp F | wind direction | speed knots | gust knots | rain 1hr in | rain 24hr in | rain mn in | humidity % | barometer mb |
| 20260902024543 | 71 | 285 | 6.1 | 9.6 | 0.00 | 0.00 | 0.00 | 38 | 1003.2 |
| 20260902023049 | 73 | 290 | 7.8 | 9.6 | 0.00 | 0.00 | 0.00 | 38 | 1002.7 |
| 20260902021543 | 74 | 283 | 7.0 | 9.6 | 0.00 | 0.00 | 0.00 | 36 | 1002.7 |
| 20260902020042 | 76 | 283 | 3.5 | 4.3 | 0.00 | 0.00 | 0.00 | 36 | 1002.7 |
| 20260902014542 | 77 | 298 | 4.3 | 5.2 | 0.00 | 0.00 | 0.00 | 35 | 1002.7 |
| 20260902013041 | 77 | 285 | 2.6 | 6.1 | 0.00 | 0.00 | 0.00 | 34 | 1002.7 |
| 20260902011540 | 78 | 285 | 5.2 | 7.0 | 0.00 | 0.00 | 0.00 | 34 | 1002.7 |
| 20260902010046 | 78 | 288 | 4.3 | 6.1 | 0.00 | 0.00 | 0.00 | 35 | 1002.5 |
| 20260902004538 | 78 | 307 | 4.3 | 7.0 | 0.00 | 0.00 | 0.00 | 35 | 1002.5 |
| 20260902003037 | 78 | 304 | 5.2 | 8.7 | 0.00 | 0.00 | 0.00 | 35 | 1002.5 |
| 20260902001536 | 78 | 290 | 6.1 | 8.7 | 0.00 | 0.00 | 0.00 | 34 | 1002.4 |
| 20260902000034 | 78 | 285 | 4.3 | 7.8 | 0.00 | 0.00 | 0.00 | 35 | 1002.5 |
| 20260901234532 | 78 | 281 | 2.6 | 11.3 | 0.00 | 0.00 | 0.00 | 36 | 1002.4 |
| 20260901233031 | 79 | 288 | 4.3 | 7.8 | 0.00 | 0.00 | 0.00 | 35 | 1002.5 |
| 20260901231528 | 79 | 338 | 6.1 | 8.7 | 0.00 | 0.00 | 0.00 | 36 | 1002.7 |
| 20260901230038 | 78 | 284 | 3.5 | 7.0 | 0.00 | 0.00 | 0.00 | 36 | 1002.8 |
| 20260901224523 | 78 | 253 | 4.3 | 8.7 | 0.00 | 0.00 | 0.00 | 36 | 1003.0 |
| 20260901223020 | 77 | 293 | 5.2 | 8.7 | 0.00 | 0.00 | 0.00 | 37 | 1003.3 |
| 20260901221516 | 76 | 213 | 2.6 | 5.2 | 0.00 | 0.00 | 0.00 | 39 | 1003.4 |
| 20260901220013 | 75 | 221 | 1.7 | 6.1 | 0.00 | 0.00 | 0.00 | 40 | 1003.5 |
| 20260901214512 | 75 | 217 | 3.5 | 5.2 | 0.00 | 0.00 | 0.00 | 40 | 1003.5 |
| 20260901213033 | 75 | 236 | 1.7 | 6.1 | 0.00 | 0.00 | 0.00 | 40 | 1003.7 |
| 20260901211516 | 75 | 255 | 2.6 | 8.7 | 0.00 | 0.00 | 0.00 | 39 | 1003.8 |
| 20260901210018 | 75 | 242 | 3.5 | 7.8 | 0.00 | 0.00 | 0.00 | 38 | 1004.0 |
| 20260901204509 | 75 | 194 | 4.3 | 7.8 | 0.00 | 0.00 | 0.00 | 38 | 1004.2 |
| 20260901203007 | 74 | 211 | 6.1 | 8.7 | 0.00 | 0.00 | 0.00 | 39 | 1004.5 |
| 20260901201501 | 72 | 260 | 3.5 | 11.3 | 0.00 | 0.00 | 0.00 | 43 | 1004.5 |
| 20260901200058 | 71 | 257 | 8.7 | 11.3 | 0.00 | 0.00 | 0.00 | 46 | 1004.6 |
| 20260901194557 | 71 | 250 | 8.7 | 13.0 | 0.00 | 0.00 | 0.00 | 46 | 1004.7 |
| 20260901193101 | 71 | 278 | 11.3 | 16.5 | 0.00 | 0.00 | 0.00 | 43 | 1004.5 |
| 20260901191559 | 71 | 293 | 4.3 | 9.6 | 0.00 | 0.00 | 0.00 | 37 | 1004.4 |
| 20260901190054 | 71 | 360 | 2.6 | 4.3 | 0.00 | 0.00 | 0.00 | 37 | 1004.2 |
| 20260901184553 | 70 | 75 | 2.6 | 3.5 | 0.00 | 0.00 | 0.00 | 38 | 1005.4 |
| 20260901183053 | 71 | 46 | 0.9 | 1.7 | 0.00 | 0.00 | 0.00 | 38 | 1005.7 |
| 20260901181548 | 70 | 332 | 2.6 | 4.3 | 0.00 | 0.00 | 0.00 | 39 | 1005.5 |
| 20260901180045 | 69 | 51 | 1.7 | 3.5 | 0.00 | 0.00 | 0.00 | 40 | 1005.2 |
| 20260901174543 | 68 | 127 | 0.9 | 2.6 | 0.00 | 0.00 | 0.00 | 40 | 1005.6 |
| 20260901173041 | 68 | 134 | 1.7 | 3.5 | 0.00 | 0.00 | 0.00 | 41 | 1005.6 |
| 20260901171539 | 67 | 205 | 0.9 | 4.3 | 0.00 | 0.00 | 0.00 | 42 | 1005.9 |
| 20260901170036 | 67 | 248 | 2.6 | 4.3 | 0.00 | 0.00 | 0.00 | 40 | 1005.8 |
| 20260901164537 | 66 | 229 | 2.6 | 5.2 | 0.00 | 0.00 | 0.00 | 42 | 1005.7 |
| 20260901163034 | 66 | 143 | 1.7 | 5.2 | 0.00 | 0.00 | 0.00 | 39 | 1005.0 |
| 20260901161536 | 65 | 89 | 1.7 | 3.5 | 0.00 | 0.00 | 0.00 | 41 | 1005.2 |
| 20260901160035 | 65 | 111 | 2.6 | 3.5 | 0.00 | 0.00 | 0.00 | 41 | 1005.0 |
| 20260901154527 | 64 | 86 | 3.5 | 3.5 | 0.00 | 0.00 | 0.00 | 41 | 1005.3 |
| 20260901153028 | 61 | 276 | 0.0 | 3.5 | 0.00 | 0.00 | 0.00 | 43 | 1005.5 |
| 20260901151526 | 63 | 276 | 2.6 | 4.3 | 0.00 | 0.00 | 0.00 | 42 | 1005.6 |
| 20260901150023 | 62 | 83 | 0.9 | 3.5 | 0.00 | 0.00 | 0.00 | 42 | 1005.1 |
| 20260901144521 | 60 | 105 | 3.5 | 5.2 | 0.00 | 0.00 | 0.00 | 44 | 1004.9 |
| 20260901143022 | 59 | 93 | 4.3 | 6.1 | 0.00 | 0.00 | 0.00 | 44 | 1004.7 |
| 20260901141521 | 60 | 94 | 2.6 | 4.3 | 0.00 | 0.00 | 0.00 | 42 | 1004.6 |
| 20260901140018 | 60 | 90 | 4.3 | 6.1 | 0.00 | 0.00 | 0.00 | 42 | 1004.4 |
| 20260901134516 | 0 | 0.0 | 0.0 | 0.00 | 0.00 | 0.00 | 1004.2 | ||
| 20260901133011 | 0 | 0.0 | 0.0 | 0.00 | 0.00 | 0.00 | 1004.1 | ||
| 20260901131519 | 0 | 0.0 | 0.0 | 0.00 | 0.00 | 0.00 | 1004.0 | ||
| 20260901130002 | 0 | 0.0 | 0.0 | 0.00 | 0.00 | 0.00 | 1004.0 | ||
| 20260901124558 | 0 | 0.0 | 0.0 | 0.00 | 0.00 | 0.00 | 1003.9 | ||
| 20260901123055 | 0 | 0.0 | 0.0 | 0.00 | 0.00 | 0.00 | 1003.8 | ||
| 20260901121549 | 0 | 0.0 | 0.0 | 0.00 | 0.00 | 0.00 | 1003.8 | ||
| 20260901120047 | 0 | 0.0 | 0.0 | 0.00 | 0.00 | 0.00 | 1003.9 | ||
| 20260901114544 | 0 | 0.0 | 0.0 | 0.00 | 0.00 | 0.00 | 1003.7 | ||
| 20260901113036 | 0 | 0.0 | 0.0 | 0.00 | 0.00 | 0.00 | 1003.9 | ||
| 20260901111531 | 0 | 0.0 | 0.0 | 0.00 | 0.00 | 0.00 | 1003.8 | ||
| 20260901110032 | 0 | 0.0 | 0.0 | 0.00 | 0.00 | 0.00 | 1004.0 | ||
| 20260901104524 | 0 | 0.0 | 0.0 | 0.00 | 0.00 | 0.00 | 1004.1 | ||
| 20260901103018 | 0 | 0.0 | 0.0 | 0.00 | 0.00 | 0.00 | 1004.3 | ||
| 20260901101513 | 0 | 0.0 | 0.0 | 0.00 | 0.00 | 0.00 | 1004.4 | ||
| 20260901100010 | 0 | 0.0 | 0.0 | 0.00 | 0.00 | 0.00 | 1004.5 | ||
| 20260901094516 | 59 | 87 | 4.3 | 5.2 | 0.00 | 0.00 | 0.00 | 43 | 1004.6 |
| 20260901093006 | 61 | 94 | 1.7 | 2.6 | 0.00 | 0.00 | 0.00 | 43 | 1004.6 |
| 20260901091505 | 60 | 86 | 3.5 | 5.2 | 0.00 | 0.00 | 0.00 | 44 | 1004.7 |
| 20260901090008 | 61 | 92 | 3.5 | 5.2 | 0.00 | 0.00 | 0.00 | 43 | 1004.7 |
| 20260901084601 | 59 | 87 | 4.3 | 5.2 | 0.00 | 0.00 | 0.00 | 45 | 1004.7 |
| 20260901083059 | 61 | 73 | 2.6 | 4.3 | 0.00 | 0.00 | 0.00 | 44 | 1004.8 |
| 20260901081556 | 61 | 99 | 1.7 | 4.3 | 0.00 | 0.00 | 0.00 | 44 | 1004.8 |
| 20260901080052 | 63 | 97 | 2.6 | 3.5 | 0.00 | 0.00 | 0.00 | 39 | 1004.6 |
| 20260901074550 | 62 | 97 | 3.5 | 4.3 | 0.00 | 0.00 | 0.00 | 42 | 1004.7 |
| 20260901073049 | 62 | 77 | 2.6 | 4.3 | 0.00 | 0.00 | 0.00 | 41 | 1004.6 |
| 20260901071557 | 62 | 93 | 3.5 | 5.2 | 0.00 | 0.00 | 0.00 | 43 | 1004.5 |
| 20260901070042 | 63 | 98 | 2.6 | 4.3 | 0.00 | 0.00 | 0.00 | 41 | 1004.5 |
| 20260901064543 | 67 | 142 | 0.9 | 2.6 | 0.00 | 0.00 | 0.00 | 35 | 1004.5 |
| 20260901063041 | 66 | 70 | 2.6 | 3.5 | 0.00 | 0.00 | 0.00 | 35 | 1004.4 |
| 20260901061541 | 68 | 106 | 0.0 | 1.7 | 0.00 | 0.00 | 0.00 | 34 | 1004.3 |
| 20260901060040 | 66 | 89 | 1.7 | 3.5 | 0.00 | 0.00 | 0.00 | 36 | 1004.5 |
| 20260901054540 | 66 | 85 | 1.7 | 1.7 | 0.00 | 0.00 | 0.00 | 36 | 1004.5 |
| 20260901053044 | 66 | 210 | 0.0 | 1.7 | 0.00 | 0.00 | 0.00 | 36 | 1004.6 |
| 20260901051538 | 67 | 261 | 1.7 | 3.5 | 0.00 | 0.00 | 0.00 | 35 | 1004.6 |
| 20260901050038 | 66 | 108 | 1.7 | 3.5 | 0.00 | 0.00 | 0.00 | 35 | 1004.5 |
| 20260901044544 | 67 | 313 | 2.6 | 3.5 | 0.00 | 0.00 | 0.00 | 33 | 1004.5 |
| 20260901043041 | 66 | 294 | 1.7 | 3.5 | 0.00 | 0.00 | 0.00 | 35 | 1004.4 |
| 20260901041537 | 68 | 143 | 1.7 | 2.6 | 0.00 | 0.00 | 0.00 | 33 | 1004.4 |
| 20260901040035 | 73 | 94 | 0.9 | 2.6 | 0.00 | 0.00 | 0.00 | 27 | 1004.4 |
| 20260901034536 | 73 | 346 | 0.9 | 2.6 | 0.00 | 0.00 | 0.00 | 28 | 1004.4 |
| 20260901033033 | 72 | 87 | 0.0 | 3.5 | 0.00 | 0.00 | 0.00 | 29 | 1004.3 |
| 20260901031533 | 74 | 91 | 3.5 | 5.2 | 0.00 | 0.00 | 0.00 | 27 | 1004.2 |
| 20260901030032 | 76 | 51 | 3.5 | 5.2 | 0.00 | 0.00 | 0.00 | 26 | 1004.2 |